Regional Weather Roundup
Issued by NWS Grand Forks, ND

Home | Current Version | Previous Version | Graphics & Text | Print | Product List | Glossary On
Versions: 1 2 3 4 5 6 7 8 9 10 11 12 13 14 15 16 17 18 19 20 21 22 23 24 25 26 27 28 29 30 31 32 33 34 35 36 37 38 39 40 41 42 43 44 45 46 47 48 49 50
000
ASUS43 KFGF 281231
RWRFGF
PRAIRIE TO PINES  WEATHER ROUNDUP
NATIONAL WEATHER SERVICE EASTERN NORTH DAKOTA/GRAND FORKS ND
700 AM CDT SAT MAR 28 2015

 **SATELLITE DATA USED TO AUGMENT SKY COVER AT AUTOMATED STATIONS**
 *****  WEATHER ACROSS EASTERN NORTH DAKOTA  *****

CITY           SKY/WX    TMP DP  RH WIND       PRES   REMARKS
GRAND FORKS    MOCLDY    22  16  78 S10       30.09S WCI  11
6HR MIN TEMP:  21; 6HR MAX TEMP:  26;

GRAND FRKS AFB CLOUDY    27  21  80 S8        30.07F WCI  18
GRAND FRKS NWS   N/A     23 N/A N/A S10         N/A  WCI  12
DEVILS LAKE    CLOUDY    28  27  93 S12       29.99S WCI  18
6HR MIN TEMP:  28; 6HR MAX TEMP:  28;

FARGO          CLEAR     26  18  71 SE13      30.12R WCI  15
WAHPETON ARPT  SUNNY     23  19  86 SE7       30.14R WCI  15
$$

 ***** WEATHER ACROSS CENTRAL AND WESTERN NORTH DAKOTA  *****

CITY           SKY/WX    TMP DP  RH WIND       PRES   REMARKS
BISMARCK       FOG       29  28  96 SE10      29.97F VSB 1/2 WCI  20
6HR MIN TEMP:  27; 6HR MAX TEMP:  31;

MINOT          CLOUDY    26  24  92 SE10      29.90F FOG     WCI  16
6HR MIN TEMP:  25; 6HR MAX TEMP:  32;

JAMESTOWN      CLOUDY    29  27  92 S12       30.03R WCI  19
6HR MIN TEMP:  28; 6HR MAX TEMP:  29;

MINOT AFB      FRZ DRZL  27  27 100 SE12      29.88F VSB 3/4 WCI  16
GARRISON         N/A     28  27  96 SE9       29.90F WCI  19
WILLISTON      CLEAR     37  33  85 S7        29.81F
6HR MIN TEMP:  29; 6HR MAX TEMP:  39;

DICKINSON      CLEAR     36  31  82 S12       29.84F
6HR MIN TEMP:  32; 6HR MAX TEMP:  37;

HETTINGER      CLEAR     34  29  82 SE6       29.90F
6HR MIN TEMP:  27; 6HR MAX TEMP:  35;

$$

 *****  OTHER AIRPORT OBSERVATIONS IN OUR AREA  *****

CITY           SKY/WX    TMP DP  RH WIND       PRES   REMARKS
WALHALLA         N/A     23  23 100 S10       30.04S WCI  12
GRAFTON AIRPOR NOT AVBL
VALLEY CITY AR CLOUDY    25  25 100 S10       30.05S WCI  15
CANDO          CLOUDY    28  28 100 S13       29.98F FOG     WCI  18
CAVALIER APRT    N/A     25  23  93 S9        30.05S WCI  15
GWINNER          N/A     25  25 100 SE8         N/A  WCI  16
SHEYENNE NWR     N/A     27  22  83 S9        29.95S WCI  18
ROLLA          FOG       28  28 100 MISG      29.93F VSB 1/2
 ***** THE ABOVE OBSERVATIONS ARE NON NWS ARE NOT QUALITY
       CONTROLLED AND MAY MIS-REPORT RAIN FOR SNOW...
$$

  *****  WEATHER ACROSS NORTHERN MINNESOTA  *****

CITY           SKY/WX    TMP DP  RH WIND       PRES   REMARKS
FLAG ISLAND    PTCLDY    16  10  79 SE6       30.10S WCI   7
WARROAD        PTCLDY    21  16  79 S3        30.11S
ROSEAU         PTCLDY    19  14  79 S6        30.10S WCI  11
HALLOCK        CLEAR     21  18  86 SE12      30.08R WCI   9
THF RVR FALLS  CLEAR     23  16  74 S8        30.11R WCI  14
6HR MIN TEMP:  21; 6HR MAX TEMP:  27;

BAUDETTE       PTCLDY    14  10  84 SE5       30.11S WCI   6
6HR MIN TEMP:  14; 6HR MAX TEMP:  19;

WASKISH        PTCLDY    12   9  85 CALM      30.13S
CROOKSTON      PTCLDY    25  18  74 S12       30.12S WCI  14
STEPHEN NDAWN    N/A     25  18  74 S12         N/A  WCI  14
GREENBUSH NDAW   N/A     23  18  80 S8          N/A  WCI  14
$$
  *****  WEATHER ACROSS CENTRAL AND WEST MINNESOTA  *****

CITY           SKY/WX    TMP DP  RH WIND       PRES   REMARKS
FOSSTON        CLEAR     19  12  73 SE8       30.11F WCI   9
BEMIDJI        CLEAR     12   8  84 SE5       30.13S WCI   4
PARK RAPIDS    CLEAR     20  11  68 SE6       30.13R WCI  12
6HR MIN TEMP:  17; 6HR MAX TEMP:  25;

ELBOW LAKE     FAIR      21  17  85 SE7       30.14R WCI  13
WADENA         CLEAR     18  12  79 SE3       30.15R
DETROIT LAKES  CLEAR     19  18  93 SE8       30.14R WCI   9
MOORHEAD       PTCLDY    25  21  86 SE10      30.14R WCI  15
FERGUS FALLS   CLEAR     23  16  74 SE8       30.17R WCI  14
MORRIS MN      CLEAR     25  21  86 SE9       30.14R WCI  15
STAPLES        CLEAR     16  10  79 E3        30.16R
$$
  *****  WEATHER ELSEWHERE ACROSS MINNESOTA  *****

CITY           SKY/WX    TMP DP  RH WIND       PRES   REMARKS
DULUTH         CLEAR     13   7  77 VRB3      30.18R
6HR MIN TEMP:  13; 6HR MAX TEMP:  20;

INTRNTL FALLS  CLEAR     12   5  73 CALM      30.14R
6HR MIN TEMP:  10; 6HR MAX TEMP:  16;

ELY            CLEAR      3   1  92 CALM      30.18R
CLOQUET        CLEAR     10   7  85 CALM      30.19R
WHEATON        CLEAR     21  19  93 SE9       30.16R WCI  11
BRAINERD       FAIR      13   9  84 CALM      30.18R
6HR MIN TEMP:  12; 6HR MAX TEMP:  20;

HIBBING        CLEAR      4   0  83 CALM      30.18R
6HR MIN TEMP:   4; 6HR MAX TEMP:  14;

ALEXANDRIA     PTCLDY    22  16  78 SE7       30.15R WCI  13
6HR MIN TEMP:  22; 6HR MAX TEMP:  25;

SAINT CLOUD    FAIR      17  12  80 SE3       30.20R
6HR MIN TEMP:  17; 6HR MAX TEMP:  25;

MINNEAPOLIS    CLEAR     20   9  62 SE5       30.23R WCI  13
6HR MIN TEMP:  20; 6HR MAX TEMP:  25;

$$

  *****  WEATHER ACROSS SOUTH DAKOTA  *****

CITY           SKY/WX    TMP DP  RH WIND       PRES   REMARKS
SIOUX FALLS    PTCLDY    29  25  85 SE9       30.10S WCI  20
6HR MIN TEMP:  29; 6HR MAX TEMP:  30;

BROOKINGS      NOT AVBL
WATERTOWN      CLOUDY    28  24  85 S8        30.07R WCI  20
6HR MIN TEMP:  28; 6HR MAX TEMP:  29;

HURON          CLOUDY    30  24  78 SE9       30.08R WCI  22
6HR MIN TEMP:  25; 6HR MAX TEMP:  30;

SISSETON         N/A     20  19  96 SE3       30.11R
ABERDEEN       CLOUDY    31  25  78 S10       30.07R WCI  22
6HR MIN TEMP:  31; 6HR MAX TEMP:  32;

MITCHELL       CLEAR     26  22  84 SE9       30.08R WCI  17
PIERRE         CLEAR     23  22  96 E5        29.98S WCI  17
6HR MIN TEMP:  23; 6HR MAX TEMP:  31;

MOBRIDGE       CLEAR     24  21  88 E10       29.96F WCI  14
RAPID CITY     CLEAR     37  30  75 CALM      29.92S
6HR MIN TEMP:  32; 6HR MAX TEMP:  45;

$$

  *****  SOME WEATHER IN NEARBY STATES *****

CITY           SKY/WX    TMP DP  RH WIND       PRES   REMARKS
GLASGOW MT     CLEAR     37  33  85 E13       29.71F
6HR MIN TEMP:  37; 6HR MAX TEMP:  45;

GREAT FALLS MT CLEAR     52  33  48 S17       29.70F
6HR MIN TEMP:  45; 6HR MAX TEMP:  53;

CHEYENNE WY    CLEAR     46  22  38 NW10      30.09R
6HR MIN TEMP:  43; 6HR MAX TEMP:  47;

SCOTTSBLUFF NE CLEAR     32  26  78 W6        29.99S
6HR MIN TEMP:  31; 6HR MAX TEMP:  45;

OMAHA NE       MOCLDY    34  26  72 SE12      30.13R
6HR MIN TEMP:  34; 6HR MAX TEMP:  37;

DES MOINES IA  CLOUDY    32  13  45 SE6       30.20R
6HR MIN TEMP:  32; 6HR MAX TEMP:  34;

DAVENPORT IA   CLEAR     18  12  77 SE7       30.27R WCI   9
6HR MIN TEMP:  18; 6HR MAX TEMP:  24;

CHICAGO IL     PTCLDY    20  13  74 N5        30.27R WCI  13
6HR MIN TEMP:  20; 6HR MAX TEMP:  22;

EAU CLAIRE WI  FAIR      14   9  80 CALM      30.24R
6HR MIN TEMP:  13; 6HR MAX TEMP:  23;

LA CROSSE WI   CLEAR     20  15  81 E5        30.26R WCI  13
6HR MIN TEMP:  20; 6HR MAX TEMP:  24;

$$

  *****  SOME NATIONAL WEATHER *****

CITY           SKY/WX    TMP DP  RH WIND       PRES   REMARKS
LA GUARDIA NY  CLOUDY    35  21  56 NW17      29.80R WCI  25
6HR MIN TEMP:  35; 6HR MAX TEMP:  39;

RALEIGH NC     PTCLDY    37  27  67 NW6       29.98R
6HR MIN TEMP:  35; 6HR MAX TEMP:  42;

ATLANTA GA     PTCLDY    37  25  61 NW13      30.08R
6HR MIN TEMP:  37; 6HR MAX TEMP:  42;

NEW ORLEANS LA PTCLDY    50  37  61 E6        30.21R
6HR MIN TEMP:  50; 6HR MAX TEMP:  57;

OKLAHOMA CITY  PTCLDY    45  37  73 S8        30.02S
6HR MIN TEMP:  42; 6HR MAX TEMP:  48;

ALBUQUERQUE NM PTCLDY    49  19  30 E3        30.21R
6HR MIN TEMP:  44; 6HR MAX TEMP:  61;

SALT LAKE CITY PTCLDY    52  32  46 SE10      30.08S
6HR MIN TEMP:  50; 6HR MAX TEMP:  56;

LOS ANGELES CA PTCLDY    57  55  94 E5        30.06R


USA.gov is the U.S. government's official web portal to all federal, state and local government web resources and services.